Wind_Speed
9 8 6 5 4 3 2 1 0 0 1 1 2 2 2 3 3 3 3 3 3 4 4 5 6 7 7 8 9 10 9 8 8 8 7 7 7 7 6 6 5 4 4
9 7 6 5 4 3 2 1 0 1 1 1 2 2 3 3 3 3 3 2 3 3 3 4 4 5 6 7 7 9 9 8 8 8 9 8 8 8 7 7 7 6 6
8 7 5 4 4 3 2 1 0 1 1 2 2 3 3 4 3 3 2 3 3 2 2 3 3 4 5 7 7 8 8 8 8 9 10 10 9 9 8 8 8 8 8
8 7 6 5 4 3 2 1 0 1 1 2 2 3 3 4 4 4 3 3 3 3 2 2 3 3 3 4 6 7 8 9 8 9 9 10 11 10 10 10 9 9 9
9 8 7 6 4 3 2 1 1 0 1 2 2 3 3 4 4 4 4 4 4 4 3 3 2 2 3 4 4 5 7 8 8 9 9 10 10 11 11 11 11 11 11
10 9 8 7 5 4 3 2 2 1 0 1 2 3 3 3 4 4 4 5 5 5 5 3 2 2 3 3 3 4 5 6 7 7 8 9 9 10 12 12 12 13 13
11 9 8 7 6 5 4 3 2 1 1 1 2 3 3 3 4 4 4 5 5 6 5 5 3 3 3 2 2 2 3 4 5 6 7 8 8 9 10 11 12 13 13
11 10 9 8 7 6 5 4 3 2 1 1 1 2 3 3 4 4 5 4 5 6 6 6 4 3 3 3 3 3 3 4 5 5 7 7 8 8 9 11 11 12 12
12 10 10 9 8 7 6 5 3 3 2 1 1 2 2 3 3 4 5 5 5 6 6 6 5 5 5 4 4 4 4 4 5 5 6 7 8 9 10 11 11 12 12
13 12 11 10 9 8 7 6 4 3 2 1 0 1 1 2 3 4 5 5 5 6 6 6 6 6 5 5 5 5 5 5 5 6 6 7 7 8 9 10 11 11 12
14 13 12 10 10 9 8 7 6 5 3 2 1 1 2 2 3 3 4 5 5 6 6 6 6 7 7 6 6 6 6 6 6 7 7 7 8 8 9 10 11 12 12
14 13 13 12 11 10 10 9 8 7 5 4 3 3 3 3 4 4 4 5 5 6 7 7 7 7 7 8 7 7 7 7 8 8 8 8 9 9 10 10 10 11 12
14 14 14 13 12 11 11 10 10 9 7 6 6 5 5 5 5 6 6 7 7 8 8 9 9 9 9 9 8 9 9 9 9 10 10 10 10 11 11 11 11 12 13
15 14 14 13 13 12 12 12 11 11 10 9 9 8 8 8 9 9 9 10 10 10 10 11 11 11 11 11 11 11 11 11 11 11 11 11 12 12 12 12 13 13 13
15 14 14 13 13 13 13 13 13 13 12 12 12 12 12 12 12 12 13 13 13 13 13 14 14 14 14 14 14 14 14 13 14 13 13 13 14 14 14 14 15 15 15
15 15 14 14 14 14 14 15 15 15 15 15 15 15 15 15 15 16 16 16 17 17 17 17 17 17 17 17 17 17 17 17 17 17 17 17 17 17 17 17 17 17 17
16 15 15 15 14 14 15 16 17 17 17 18 18 18 19 19 19 19 19 20 20 21 21 21 21 21 21 21 21 21 21 21 21 21 21 21 21 20 20 20 20 21 21
16 16 16 16 15 16 16 17 18 19 19 19 20 20 21 21 22 22 23 23 24 24 24 24 24 24 24 24 24 24 24 24 25 25 25 25 24 24 24 24 24 24 24
17 17 17 18 18 18 18 18 19 20 20 20 21 22 22 23 24 25 26 26 27 28 28 27 27 28 28 28 28 28 28 28 28 28 28 28 28 28 28 28 28 28 28
15 16 18 18 19 19 19 20 21 22 22 23 24 24 25 26 27 28 29 29 30 30 31 31 31 31 31 31 31 31 30 31 31 31 31 32 32 32 31 32 32 32 32
15 15 16 17 18 19 20 21 22 23 23 24 25 26 27 28 30 31 31 32 33 33 34 34 34 34 34 34 34 34 34 34 34 34 34 34 34 35 34 34 35 35 35
16 16 16 17 18 19 20 22 23 24 24 26 27 29 29 30 32 34 35 35 35 35 36 37 37 37 37 38 38 38 37 36 36 37 38 37 37 36 37 37 37 37 38
16 17 18 19 19 20 22 24 24 25 26 27 29 30 31 32 32 34 35 36 36 36 37 38 39 39 40 40 41 41 41 40 39 39 40 40 40 40 40 39 39 40 40
18 19 20 21 21 22 24 25 26 27 27 29 29 30 31 32 32 34 35 36 37 38 39 39 39 41 42 42 43 44 45 44 43 43 44 44 43 43 43 43 43 42 43
20 21 22 23 24 24 26 27 28 29 29 30 32 32 33 34 35 36 37 38 38 39 40 41 41 42 42 43 44 45 46 47 46 45 46 46 46 45 45 45 45 45 45
22 23 24 24 25 26 27 29 30 32 32 33 35 36 36 37 38 39 39 41 41 42 43 43 44 44 45 45 45 46 47 47 48 47 47 49 48 48 47 47 48 48 48
Wind_Direction
241 237 231 233 236 239 239 242 275 351 335 338 344 340 344 333 326 305 297 288 285 275 269 267 253 242 244 241 237 231 231 234 232 234 233 231 229 227 228 228 230 232 233
234 230 227 230 226 222 214 182 117 64 36 19 12 6 5 358 350 332 329 321 294 287 279 273 260 246 249 246 245 239 236 239 241 241 238 234 231 233 235 235 236 239 241
230 223 222 223 214 210 196 179 85 67 46 26 22 18 15 12 13 19 4 351 339 323 299 278 261 250 251 249 250 247 242 243 245 242 241 239 238 239 242 243 243 245 247
223 220 219 209 199 206 199 195 8 81 64 42 33 22 19 23 27 34 26 9 359 351 336 305 279 264 268 263 255 253 250 248 245 242 243 243 241 243 245 246 245 247 247
219 217 214 209 210 213 204 213 237 111 60 42 35 25 24 33 33 31 30 24 17 9 357 335 307 290 289 282 273 263 254 254 248 248 248 247 244 247 251 251 250 252 250
215 211 209 211 215 220 217 215 211 169 79 47 38 32 32 35 33 28 28 27 21 17 11 360 346 327 313 304 291 280 265 260 252 251 251 249 249 254 256 255 254 255 254
209 207 209 213 218 217 216 207 202 194 166 62 54 47 37 32 31 31 28 25 21 21 19 10 1 359 348 333 329 310 288 276 262 256 253 253 256 259 261 257 255 255 256
208 209 209 211 215 216 215 209 205 200 179 112 62 51 45 39 36 32 24 21 22 24 20 19 18 12 360 354 349 336 318 299 278 268 261 260 263 265 266 263 259 258 258
208 207 208 211 216 217 214 210 202 191 177 146 74 63 56 46 42 30 31 29 26 21 17 16 16 13 5 353 346 337 327 313 293 288 282 276 275 273 271 268 266 262 260
211 209 208 212 215 214 212 209 204 198 192 196 231 31 24 22 24 19 18 14 14 13 13 10 3 358 354 349 343 336 327 320 313 298 291 286 287 280 276 275 271 266 263
212 212 213 216 216 214 214 213 211 210 211 225 254 292 318 336 347 350 354 355 359 1 2 360 357 354 350 345 337 331 329 325 320 311 302 295 291 289 284 280 277 271 267
213 216 216 216 216 216 217 218 217 218 224 237 252 274 294 308 319 323 326 331 337 340 342 341 341 343 342 339 335 329 325 320 316 311 307 300 293 291 291 289 285 278 272
215 218 217 216 218 221 221 221 222 226 233 244 255 267 279 291 301 307 310 313 317 322 326 327 327 327 326 324 323 320 317 314 310 307 303 299 294 290 289 287 287 283 276
215 219 219 219 221 226 228 228 230 234 240 249 259 267 274 282 289 294 298 302 304 308 312 314 314 314 313 312 312 310 308 307 305 304 302 299 296 293 290 287 285 283 280
217 220 221 223 227 232 234 236 238 243 247 252 260 266 272 278 283 287 291 294 297 299 301 303 304 303 303 302 302 301 300 300 298 297 297 296 294 292 290 288 284 282 281
220 224 228 230 234 239 241 242 245 250 253 257 263 267 271 275 280 284 287 290 292 294 295 297 298 298 297 296 295 296 295 294 293 292 291 290 289 287 286 285 283 282 281
225 230 233 236 240 245 247 248 251 254 257 262 267 270 272 275 279 282 285 287 289 291 293 294 295 296 295 294 293 292 291 290 290 289 289 287 285 283 282 281 281 280 279
232 235 238 241 244 249 251 253 256 259 261 264 268 271 273 276 278 280 282 284 286 287 289 291 291 292 292 292 291 290 289 288 287 286 285 284 283 281 280 279 279 278 278
236 239 244 247 249 252 255 259 261 263 265 267 270 272 275 276 277 280 282 283 284 284 285 286 287 288 288 288 288 287 287 286 285 284 283 281 280 279 279 278 278 277 276
243 243 246 249 252 255 258 264 266 267 268 269 271 273 275 277 279 281 282 283 283 283 283 283 284 285 285 285 285 284 283 283 283 282 281 280 279 278 278 278 277 277 276
248 247 248 253 255 258 261 266 268 269 270 272 273 274 276 278 280 282 283 284 284 283 283 283 283 284 284 284 283 282 281 281 281 281 280 278 277 277 276 275 275 275 275
251 253 254 257 262 263 264 268 271 272 272 274 276 277 279 281 282 283 284 284 284 283 282 283 283 283 283 282 282 281 281 281 280 279 279 279 278 276 275 275 274 274 273
256 258 260 263 265 268 271 273 275 275 275 276 278 280 282 284 285 285 285 286 286 285 285 284 283 283 283 282 281 280 281 280 280 279 278 278 277 276 275 274 273 273 273
260 262 263 265 268 272 275 275 276 278 280 280 281 283 285 286 288 288 287 287 286 286 286 286 285 284 284 284 282 281 281 280 280 280 279 278 277 276 275 274 274 273 272
265 267 269 269 270 273 276 278 279 281 283 283 284 285 286 287 288 288 289 289 288 287 286 286 287 286 285 285 284 284 282 281 279 278 278 278 277 276 275 275 274 273 272
268 270 272 272 273 275 278 280 282 283 284 285 285 286 286 288 289 289 290 290 288 287 286 286 286 286 285 285 285 285 283 281 280 278 278 277 277 277 276 275 274 273 273
Height
5881 5882 5883 5884 5884 5884 5884 5884 5884 5885 5884 5884 5884 5884 5884 5884 5884 5884 5884 5885 5885 5886 5886 5887 5887 5888 5889 5890 5891 5893 5894 5895 5896 5897 5898 5899 5900 5901 5902 5903 5904 5905 5906
5880 5881 5882 5883 5884 5884 5884 5884 5884 5884 5884 5884 5884 5884 5884 5884 5884 5884 5884 5884 5885 5885 5885 5886 5886 5887 5888 5889 5890 5891 5893 5894 5895 5896 5897 5898 5899 5900 5901 5902 5903 5904 5905
5879 5880 5882 5883 5883 5884 5884 5884 5884 5884 5884 5884 5884 5884 5884 5884 5884 5884 5884 5884 5884 5885 5885 5885 5886 5886 5887 5888 5889 5890 5891 5892 5893 5894 5895 5896 5898 5899 5900 5901 5902 5903 5903
5878 5880 5881 5882 5883 5883 5884 5884 5884 5884 5884 5884 5884 5885 5884 5884 5884 5884 5884 5884 5884 5884 5884 5885 5885 5886 5886 5887 5888 5889 5890 5890 5891 5892 5893 5894 5896 5897 5898 5899 5900 5901 5902
5878 5879 5880 5881 5882 5883 5883 5884 5884 5884 5884 5884 5885 5885 5885 5885 5885 5884 5884 5884 5884 5884 5884 5884 5885 5885 5886 5886 5887 5887 5888 5889 5890 5891 5892 5893 5894 5895 5896 5897 5898 5899 5900
5876 5878 5880 5881 5882 5882 5882 5883 5883 5884 5884 5884 5885 5885 5885 5885 5885 5885 5885 5885 5884 5884 5884 5884 5884 5885 5885 5885 5886 5886 5887 5888 5888 5889 5890 5891 5892 5893 5894 5895 5895 5896 5897
5875 5877 5879 5880 5881 5882 5882 5882 5883 5883 5884 5884 5885 5885 5885 5885 5885 5885 5885 5885 5885 5884 5884 5884 5884 5884 5885 5885 5885 5886 5886 5887 5887 5888 5888 5889 5890 5890 5891 5892 5893 5893 5894
5874 5876 5878 5879 5880 5881 5882 5882 5883 5883 5884 5884 5885 5885 5885 5886 5885 5885 5885 5885 5885 5885 5884 5884 5884 5884 5884 5885 5885 5885 5885 5886 5886 5886 5887 5887 5888 5888 5889 5889 5890 5890 5891
5873 5875 5877 5878 5879 5880 5881 5882 5883 5883 5883 5884 5884 5885 5885 5886 5885 5886 5885 5885 5885 5885 5885 5885 5884 5885 5885 5884 5884 5884 5885 5885 5885 5885 5885 5885 5886 5886 5886 5887 5887 5887 5888
5871 5873 5875 5877 5878 5879 5881 5882 5882 5883 5883 5884 5884 5885 5885 5885 5885 5886 5886 5885 5885 5885 5885 5885 5885 5885 5884 5884 5884 5884 5884 5883 5883 5883 5884 5884 5884 5884 5884 5884 5884 5884 5885
5869 5871 5873 5875 5877 5878 5879 5881 5881 5882 5883 5884 5884 5884 5884 5885 5885 5885 5885 5885 5885 5885 5885 5885 5884 5884 5884 5883 5883 5883 5882 5882 5882 5882 5882 5882 5882 5881 5881 5881 5881 5881 5882
5867 5869 5872 5873 5875 5877 5878 5879 5880 5881 5882 5883 5883 5884 5884 5884 5884 5884 5884 5884 5884 5884 5884 5884 5884 5883 5883 5882 5882 5881 5881 5881 5880 5880 5880 5879 5879 5879 5879 5878 5878 5878 5878
5865 5868 5870 5871 5873 5875 5876 5878 5879 5880 5881 5882 5882 5883 5883 5883 5883 5883 5883 5883 5883 5883 5883 5883 5882 5882 5882 5881 5881 5880 5879 5879 5878 5878 5877 5877 5876 5876 5876 5875 5875 5875 5875
5863 5865 5868 5869 5871 5873 5875 5876 5877 5878 5879 5880 5881 5881 5882 5882 5882 5882 5882 5882 5882 5882 5881 5881 5880 5880 5879 5879 5878 5878 5877 5877 5876 5875 5875 5874 5873 5873 5873 5872 5872 5872 5871
5861 5863 5865 5867 5869 5871 5872 5874 5875 5876 5877 5878 5879 5879 5879 5879 5880 5879 5879 5879 5879 5879 5879 5878 5878 5877 5876 5876 5875 5875 5874 5873 5873 5872 5871 5871 5870 5869 5869 5868 5868 5868 5867
5858 5861 5863 5865 5866 5868 5870 5871 5873 5873 5874 5875 5875 5876 5876 5877 5877 5877 5876 5876 5875 5875 5875 5874 5874 5873 5872 5872 5871 5870 5870 5869 5869 5868 5867 5866 5866 5865 5865 5864 5863 5863 5862
5856 5858 5860 5862 5863 5865 5867 5868 5869 5870 5871 5871 5872 5872 5872 5873 5873 5873 5872 5872 5871 5871 5870 5870 5869 5868 5868 5867 5866 5866 5865 5864 5863 5863 5862 5861 5860 5860 5859 5859 5858 5858 5857
5852 5854 5856 5858 5860 5861 5863 5864 5865 5866 5867 5867 5868 5868 5868 5868 5868 5868 5868 5867 5866 5866 5865 5864 5863 5862 5862 5861 5860 5859 5859 5858 5857 5856 5856 5855 5854 5853 5853 5852 5852 5851 5851
5849 5850 5852 5854 5855 5857 5858 5859 5860 5861 5862 5863 5863 5863 5863 5863 5863 5862 5862 5861 5860 5860 5859 5858 5857 5856 5855 5854 5853 5852 5851 5851 5850 5849 5848 5847 5846 5846 5845 5845 5844 5844 5843
5845 5846 5847 5849 5851 5852 5853 5854 5855 5856 5857 5857 5857 5857 5857 5857 5856 5856 5855 5854 5853 5852 5851 5851 5850 5849 5848 5846 5845 5844 5843 5842 5841 5840 5839 5839 5838 5837 5837 5836 5835 5835 5834
5841 5842 5843 5845 5846 5847 5848 5849 5850 5850 5851 5851 5851 5850 5850 5850 5849 5848 5847 5846 5845 5844 5843 5842 5841 5840 5839 5838 5836 5835 5834 5833 5832 5831 5830 5829 5829 5828 5827 5827 5826 5825 5825
5838 5839 5840 5841 5842 5843 5843 5844 5844 5844 5844 5844 5844 5843 5843 5843 5842 5840 5839 5837 5836 5835 5834 5833 5832 5830 5829 5827 5826 5825 5824 5823 5822 5821 5819 5819 5818 5818 5817 5816 5815 5815 5814
5835 5836 5837 5837 5837 5837 5838 5838 5838 5838 5837 5837 5836 5836 5835 5834 5833 5831 5830 5828 5827 5825 5824 5822 5821 5820 5818 5816 5815 5814 5812 5811 5811 5810 5808 5807 5806 5806 5805 5804 5804 5803 5802
5830 5831 5831 5832 5832 5832 5832 5832 5831 5830 5830 5829 5828 5827 5826 5825 5824 5822 5820 5819 5817 5815 5813 5811 5810 5808 5806 5804 5803 5801 5800 5799 5798 5797 5795 5795 5794 5793 5792 5791 5791 5790 5789
5825 5825 5825 5825 5825 5825 5825 5824 5824 5823 5822 5821 5820 5818 5817 5816 5814 5812 5810 5809 5807 5804 5802 5800 5798 5796 5794 5792 5790 5788 5787 5786 5785 5784 5781 5780 5780 5779 5779 5778 5777 5775 5775
5818 5818 5818 5818 5818 5818 5817 5816 5815 5814 5813 5812 5811 5809 5807 5806 5804 5801 5799 5797 5795 5793 5790 5788 5786 5784 5781 5779 5777 5774 5773 5771 5770 5769 5767 5765 5765 5764 5764 5764 5762 5761 5760